星链-4186 (STARLINK-4186 )

导读

STARLINK-4186是美国太空探索技术公司(SpaceX)星链互联网卫星星座中的一员,于2022年6月17日发射升空,属于星链计划Group 4批次卫星。它依托一箭多星发射任务入轨,旨在为全球提供低延迟、高速率的卫星互联网服务,推进星链星座全球组网进程。

Basic Information
目录编号:
52880
目录名称:
STARLINK-4186
国际标识:
2022-062BC
轨道中心:
EARTH
卫星名称:
星链-4186
卫星全名:
星链-4186 (STARLINK-4186 )
卫星状态:
在轨 (已飞行1540 天)
发射日期:
2022-06-17 UTC
国别 :
美国 (US)
星等 :
--
Orbit Information
数据来源 国际轨道数据
星历时间: 2026-09-03T11:20:45+0800
1天前
查看轨道信息
半长轴: 6840.87km
偏心率: 0.0001131
轨道倾角: 53.160°
近地点辐角 82.250°
升交点赤经 284.650°
平近点角 277.863°
近地点: 461.959km
远地点: 463.507km
周期: 93.848分钟
每日圈数: 15.3439
Detailed Information
固有亮度:
5
最大亮度:
2.5
卫星平台:
Starlink v1.5
覆盖范围:
全球
运营商:
太空探索技术公司
运营商所在国:
美国
制造商(研发单位):
太空探索技术公司
制造商所在国:
美国
使用方式:
暂无
Satellite Introduction
星链(Starlink)计划是由太空探索技术公司(SpaceX)提出的一个巨型低轨卫星互联网星座项目,计划在2019年至2024年间在太空搭建由约1.2万颗卫星组成的“星链”网络,其中1584颗将部署在地球上空550千米处的近地轨道,并从2020年开始工作。该卫星仍在工作。
2D Orbit Map
3D Orbit Map
Orbit Altitude Analysis Chart
Orbit Inclination Analysis Chart
Orbit Comprehensive Analysis Chart
View Comprehensive Chart
Conjunction Data List
Event ID Objects TCA Miss Dist (km) Collision Risk Probability Collision Risk Index (CRI) Action
CDM_260904-202905-288006-609121
2026-09-04T
20:29:13+0000
0.291 km
中距离
3.931419E-4 高风险 0.87
CDM_260904-101905-288006-609122
2026-09-04T
10:19:34+0000
0.973 km
远距离
1.821868E-5 中风险 0.6
CDM_260904-084505-288006-609121
2026-09-04T
08:45:47+0000
1.973 km
极远距离
1.914952E-6 低风险 0.41
CDM_260904-042905-288005-363621
2026-09-04T
04:29:14+0000
2.494 km
极远距离
1.523368E-6 低风险 0.39
CDM_260905-062405-146105-288021
2026-09-05T
06:24:41+0000
2.944 km
极远距离
9.98782E-7 极低风险 0.35
CDM_260904-185505-288006-609121
2026-09-04T
18:55:25+0000
2.898 km
极远距离
9.428715E-7 极低风险 0.34
CDM_260831-065505-288006-589421
2026-08-31T
06:55:46+0000
2.723 km
极远距离
5.061757E-7 极低风险 0.29